Tracking 29606 objects as of 19-Sep-2024
HD Live streaming from Space Station
objects crossing your sky now

EUTE 12 WEST A (AB 1)

Track EUTE 12 WEST A (AB 1) now!
EUTE 12 WEST A (AB 1) is classified as:


NORAD ID: 27508
Int'l Code: 2002-040A
Perigee: 36,333.4 km
Apogee: 36,382.7 km
Inclination: 5.6 °
Period: 1,465.0 minutes
Semi major axis: 42728 km
RCS: 16.1652 m2 (large)
Launch date: August 28, 2002
Source: European Telecommunications Satellite Organization (EUTE)
Launch site: FRENCH GUIANA (FRGUI)

Twenty channels, telecommunications services between Europe and the Americas.
Your satellite tracking list
Your tracking list is empty




NASA's NSSDC Master Catalog

Two Line Element Set (TLE):
1 27508U 02040A   24262.49813047  .00000004  00000-0  00000-0 0  9994
2 27508   5.6454  75.7001 0005771  30.2159 316.7238  0.98292118 80387
Source of the keplerian elements: AFSPC